Address 0x5defa9c83085c7f606ceb3b5f75fc107945ed7de 11

 
 
Txn Hash Method
Block
From
To
Value [Txn Fee]
0xf3815a152922ed743c9277bcd17993dcf86f594e424093a3126b68a74ad65c000x4841bc0d319134762022-08-15 8:28:2422 hrs 50 mins ago0x5defa9c83085c7f606ceb3b5f75fc107945ed7deOUT 0xb14c7a56361579c3151540f5980c70337ea713c70.1 MATIC0.003250656033 32.041952027
0x5c2118f82cddc9c59cabe883dd63bb416b54fb05a482b4ee167ca2f83c2e7d4f0x4841bc0d319134372022-08-15 8:26:4222 hrs 52 mins ago0x5defa9c83085c7f606ceb3b5f75fc107945ed7deOUT 0xb14c7a56361579c3151540f5980c70337ea713c70.1 MATIC0.005387045042 35.267070653
0x369780157631b0203c888829d6180b6ef40f83bdb3be96af37cff057500d37b50x60806040319133582022-08-15 8:24:0022 hrs 55 mins ago0x5defa9c83085c7f606ceb3b5f75fc107945ed7deOUT Contract Creation0 MATIC0.04292801826 41.550414275
0xbfc128daf39a0bce1c1e8ab33bc69f7521a42107f7207b7f0907858882f859c80x4841bc0d319129962022-08-15 8:08:3023 hrs 10 mins ago0x5defa9c83085c7f606ceb3b5f75fc107945ed7deOUT 0xaadac2cb83c5187c18e536f3875a53967aef64750.1 MATIC0.00334435645 32.934398699
0xb78f823f4a7a158705d8b872c4088deb2c627ac2575b88a0a2b2c7f40d31b0080x4841bc0d319129672022-08-15 8:06:3423 hrs 12 mins ago0x5defa9c83085c7f606ceb3b5f75fc107945ed7deOUT 0xaadac2cb83c5187c18e536f3875a53967aef64750.1 MATIC0.00511687484 30.108827751
0x3eb5f4d1d8fde3542b081c93013013e46dff6f1d0ea36860669ac8e5ced3d0730x60806040319128742022-08-15 8:03:0423 hrs 16 mins ago0x5defa9c83085c7f606ceb3b5f75fc107945ed7deOUT Contract Creation0 MATIC0.030994731417 30.000078805
0x59a02d32a84de8d71d1aeab393400a0331a59f80a441e41b79c1362c17bed91b0xc4efa579319127492022-08-15 7:58:4623 hrs 20 mins ago0x5defa9c83085c7f606ceb3b5f75fc107945ed7deOUT 0x7e193ff45133d22c1b5f5b2ee4d09f8876ab7c0d0 MATIC0.001030713644 30.000106075
0x3cd3649f4fb7d860ddd16da94fa9f17d73217468ed7117a229246c457c2d6fab0xab5cd5ba319125552022-08-15 7:49:5823 hrs 29 mins ago0x5defa9c83085c7f606ceb3b5f75fc107945ed7deOUT 0x4d79402ad02c1bf65643b5985ba4d3828bb37c7d0 MATIC0.001600502683 34.221443339
0x1c63a30e11a9d902cfe99f62302fa7136045ae03f78dcc6de5b8589df7b0be0b0xab5cd5ba319125422022-08-15 7:49:3223 hrs 29 mins ago0x5defa9c83085c7f606ceb3b5f75fc107945ed7deOUT 0x3b154bebb0315dd68234fad2822d2355ba0369950 MATIC0.000852655844 31.733813863
0x65bc092d5319b95c90e91637cce672d895c2ea6a98ec23c8b351872fc0b1a7e50x61b08cfd319123672022-08-15 7:43:3023 hrs 35 mins ago0x5defa9c83085c7f606ceb3b5f75fc107945ed7deOUT BitKeep: Exchange0 MATIC0.001201911104 41.106436779
0x7da0c079f38f0b2862717275b9e05d9a84b94de25ea80f0263d70592561ca92b0xc4efa579319119492022-08-15 7:29:1023 hrs 50 mins ago0x5defa9c83085c7f606ceb3b5f75fc107945ed7deOUT 0x7e193ff45133d22c1b5f5b2ee4d09f8876ab7c0d0 MATIC0.001032428302 30.050013159
0x226c6990137deca79b2ac7d88339f76c3e1f701b827c7f39b0b3189a62b083730xc4efa579319118882022-08-15 7:27:0423 hrs 52 mins ago0x5defa9c83085c7f606ceb3b5f75fc107945ed7deOUT 0x7e193ff45133d22c1b5f5b2ee4d09f8876ab7c0d0 MATIC0.001034389948 30.107109132
0x5aef27afa3561907f780d515399e6486431c57d5a5a237a713b8e3f160a604a50xc4efa579319115612022-08-15 7:15:501 day 3 mins ago0x5defa9c83085c7f606ceb3b5f75fc107945ed7deOUT 0x7e193ff45133d22c1b5f5b2ee4d09f8876ab7c0d0 MATIC0.001236541997 35.990977022
0x62ed42861508258f1bc0f4cd31d482d49a272374b0cbef83db6c8cc64aace9770x60806040319113082022-08-15 7:02:511 day 16 mins ago0x5defa9c83085c7f606ceb3b5f75fc107945ed7deOUT Contract Creation0 MATIC0.03405261102 32.959827926
0x07090faf9ce5effe88218944136c8b61fc73b9227d341321d81168c8de34728e0x4841bc0d319111822022-08-15 6:58:311 day 20 mins ago0x5defa9c83085c7f606ceb3b5f75fc107945ed7deOUT 0x636fc5f288aae358c0d98908b30fc10b7fff28870.3 MATIC0.003901822398 35.890047453
0x4aa06db84192cf91d38318adf71d30957abdbfb28dac6ebdc1482598a4f5fb790x60806040319101012022-08-15 6:19:111 day 1 hr ago0x5defa9c83085c7f606ceb3b5f75fc107945ed7deOUT Contract Creation0 MATIC0.034374100072 33.271000065
0x2a6537ce7d2f40faa4a19f636f3a9dda4469917fd1523fbc14e52197f2e7ddb50xab5cd5ba318876002022-08-14 16:27:541 day 14 hrs ago0x5defa9c83085c7f606ceb3b5f75fc107945ed7deOUT 0x4d79402ad02c1bf65643b5985ba4d3828bb37c7d0 MATIC0.000827017247 33.271000017
0xa69c2383356f5d54583e295b2298e4bf3b6d8b73d2da02e26ffb2c20fec141720xab5cd5ba318875942022-08-14 16:27:421 day 14 hrs ago0x5defa9c83085c7f606ceb3b5f75fc107945ed7deOUT 0x3b154bebb0315dd68234fad2822d2355ba0369950 MATIC0.001519333441 32.485908224
0x2aeda64be3cce3ed883bd35824feeb7e8eb59bf964f92eeeee5f0abf33f5c0f80xab5cd5ba318856652022-08-14 15:19:161 day 15 hrs ago0x5defa9c83085c7f606ceb3b5f75fc107945ed7deOUT 0x4d79402ad02c1bf65643b5985ba4d3828bb37c7d0 MATIC0.001604176701 34.300000032
0xcf822b8a803ecd341517c7da6d46c3fee8e0c497b846f28d18996325cd7218aa0xab5cd5ba318852752022-08-14 15:05:521 day 16 hrs ago0x5defa9c83085c7f606ceb3b5f75fc107945ed7deOUT 0x3b154bebb0315dd68234fad2822d2355ba0369950 MATIC0.000912202551 33.950000045
0xfbfdc3d07b9e6c76b0def2c3f7022e08f558d7ae9b3c4f726769574c053d6ef30xab5cd5ba318852592022-08-14 15:05:201 day 16 hrs ago0x5defa9c83085c7f606ceb3b5f75fc107945ed7deOUT 0x3b154bebb0315dd68234fad2822d2355ba0369950 MATIC0.001571929475 33.610500019
0x816ed159080b53231a185b068c76a07ebca5c8b23cb405187c475e44d4a8921bManage Accept To...318852342022-08-14 15:04:261 day 16 hrs ago0x5defa9c83085c7f606ceb3b5f75fc107945ed7deOUT 0xd08e15c53a19aef64059a09746c0e17d62ff2b970 MATIC0.00213561 30.000000014
0x4ca824cfe87db6ae2dd89c97a1f13873daedfa969f2348652777857875eb16b4Manage White Lis...318852012022-08-14 15:03:201 day 16 hrs ago0x5defa9c83085c7f606ceb3b5f75fc107945ed7deOUT 0xd08e15c53a19aef64059a09746c0e17d62ff2b970 MATIC0.001450560001 30.000000021
0x8d03f9f7e0db94e578952a5081b2e4b0e204f992bd2b77fc9b086a230ec35bb90x60806040318829682022-08-14 13:40:081 day 17 hrs ago0x5defa9c83085c7f606ceb3b5f75fc107945ed7deOUT Contract Creation0 MATIC0.139717368149 42.000000045
0x30214ec6e307cf5688793f7fe6391eec86dad9d32a9384044df5adbfb05ba5fd0x4841bc0d318504702022-08-13 17:13:262 days 14 hrs ago0x5defa9c83085c7f606ceb3b5f75fc107945ed7deOUT 0x6d77d4ff02e5d3f2badad4abcbebf3f52392734d0.6 MATIC0.003359310092 30.000000823
[ Download CSV Export 
Latest 3 internal transactions
Parent Txn Hash Block From To Value
0xfc60dacb9ac367b7386d050eb1c4fc62f9be0734f25eb66dec4a5ba5bc0fb830284695242022-05-18 13:15:3089 days 18 hrs ago BitKeep: Swap Router0x5defa9c83085c7f606ceb3b5f75fc107945ed7de0.093288211781180927 MATIC
0x090b3c07fdd758a85402d2b0411cac36a1f2cedee5e49ed60090b83cf4a4093d262249642022-03-22 11:22:46146 days 19 hrs ago 0x66a71dcef29a0ffbdbe3c6a460a3b5bc225cd6750x5defa9c83085c7f606ceb3b5f75fc107945ed7de0.054534643236118359 MATIC
0x0ea6fd11d5bc17d08d6b2687be3035e302c0a3a4deed226cceeeb07933e153ab204124662021-10-20 10:45:59299 days 20 hrs ago Polygon: WMATIC Token0x5defa9c83085c7f606ceb3b5f75fc107945ed7de1 MATIC
[ Download CSV Export 
Loading

Contract Name:
0 MATIC

Compiler Version
0

Optimization Enabled:
0 MATIC

Other Settings:
-NA-
Block Transaction Gas Used Reward
Age Block Fee Address BC Fee Address Voting Power Jailed Incoming
Block Uncle Number Difficulty Gas Used Reward
Loading
Loading
Make sure to use the "Vote Down" button for any spammy posts, and the "Vote Up" for interesting conversations.